User: anonymous   Login
Location: Unspecified
(0.0000°N, 0.0000°E)
Time: 03:13:49
(UTC+00:00)
Language:

CANX 3A (UNIBRITE) - Orbit

View from above orbital plane
View from above orbital plane
View from above satellite
View from above satellite

Ground track
Ground track

The orbit data is extracted from the following two-line orbital elements,

1 39092U 13009G   19081.56715389 -.00000003 +00000-0 +14158-4 0  9996
2 39092 098.4967 287.8228 0009191 184.9028 175.2069 14.34976357317737
Epoch (UTC): 22 March 2019 13:36:42
Eccentricity: 0.0009191
inclination: 98.4967°
perigee height: 768 km
apogee height: 782 km
right ascension of ascending node: 287.8228°
argument of perigee: 184.9028°
revolutions per day: 14.34976357
mean anomaly at epoch: 175.2069°
orbit number at epoch: 31773

The dashed part of the orbit path shows where the satellite is in the earth's shadow,  

DLR